Tracking 22879 objects as of 21-Apr-2021
HD Live streaming from Space Station
objects crossing your sky now

STARLINK-1645

Track STARLINK-1645 now!
10-day predictions
STARLINK-1645 is classified as:


NORAD ID: 47622
Int'l Code: 2021-012C
Perigee: 553.6 km
Apogee: 555.3 km
Inclination: 53.1 °
Period: 95.6 minutes
Semi major axis: 6925 km
RCS: Unknown
Launch date: February 16, 2021
Source: United States (US)
Launch site: AIR FORCE EASTERN TEST RANGE (AFETR)
aabbcc
Your satellite tracking list
Your tracking list is empty




NASA's NSSDC Master Catalog

Two Line Element Set (TLE):
1 47622U 21012C   21110.91667824  .00012619  00000-0  86503-3 0  9999
2 47622  53.0528 159.2743 0001223  74.2498 317.9624 15.06376985  1754
Source of the keplerian elements: AFSPC